Home   Weather   Chennai   Past weeks
Flag for India

Past Weather in Chennai, Tamil Nadu, India — Yesterday and Last 2 Weeks

Now
82 °F

Partly cloudy.


Feels Like: 92 °F
Forecast: 80 / 85 °F
Wind: 9 mph from Northeast

Location: Madras / Minambakkam

Current Time: Nov 15, 2018 at 8:35:31 pm

Latest Report: Nov 15, 2018 at 8:00 pm


Visibility: 3 mi

Pressure: 29.83 "Hg

Humidity: 89%

Dew Point: 79 °F

Location of ChennaiLocation

Past Weather in Chennai — Graph

°F

Chennai Temperature Yesterday

Maximum temperature yesterday: 91 °F (at 1:30 pm)
Minimum temperature yesterday: 72 °F (at 5:00 am)
Average temperature yesterday: 82 °F

High & Low Weather Summary for the Past Weeks

 TemperatureHumidityPressure
High91 °F (Nov 5, 12:00 pm)100% (Nov 1, 7:30 am)30.09 "Hg (Nov 1, 7:30 am)
Low72 °F (Nov 14, 5:00 am)49% (Nov 13, 3:00 pm)29.71 "Hg (Nov 13, 3:30 pm)
Average82 °F79%29.86 "Hg
* Reported Oct 31 6:30 pm — Nov 15 6:30 pm, Chennai. Weather by CustomWeather, © 2018

Note: Actual official high and low records may vary slightly from our data, if they occured in-between our weather recording intervals... More about our weather records

Advertising

Chennai Weather History for the Previous 24 Hours

Scroll right to see more
 ConditionsComfort  
Time TempWeatherWind HumidityBarometerVisibility
6:30 pm
Thu, Nov 15
82 °FPartly cloudy.9 mph89%29.80 "Hg3 mi
6:00 pm84 °FFog.9 mph79%29.77 "Hg3 mi
5:30 pm84 °FDrizzle. Broken clouds.9 mph79%29.77 "Hg3 mi
5:00 pm84 °FFog.9 mph79%29.77 "Hg3 mi
4:30 pm86 °FFog.9 mph75%29.74 "Hg3 mi
4:00 pm86 °FFog.9 mph79%29.74 "Hg3 mi
3:30 pm86 °FFog.9 mph79%29.74 "Hg3 mi
3:00 pm84 °FThunderstorms. Broken clouds.9 mph89%29.74 "Hg3 mi
2:30 pm82 °FThunderstorms. Broken clouds.12 mph89%29.74 "Hg2 mi
2:00 pm88 °FBroken clouds.12 mph75%29.74 "Hg4 mi
1:30 pm88 °FBroken clouds.9 mph75%29.77 "Hg4 mi
1:00 pm88 °FBroken clouds.9 mph75%29.77 "Hg4 mi
12:30 pm86 °FFog.9 mph79%29.80 "Hg3 mi
12:00 pm86 °FFog.9 mph79%29.80 "Hg3 mi
11:30 am86 °FFog.8 mph79%29.83 "Hg3 mi
11:00 am86 °FFog.8 mph79%29.83 "Hg3 mi
10:30 am84 °FFog.9 mph84%29.86 "Hg3 mi
10:00 am82 °FFog.9 mph89%29.86 "Hg2 mi
9:30 am81 °FFog.13 mph94%29.86 "Hg2 mi
9:00 am82 °FFog.5 mph89%29.83 "Hg1 mi
8:30 am82 °FFog.5 mph89%29.83 "Hg1 mi
8:00 am81 °FFog.5 mph89%29.83 "Hg1 mi
7:30 am79 °FFog.6 mph94%29.83 "Hg1 mi
7:00 am79 °FFog.3 mph94%29.80 "Hg1 mi
6:30 am79 °FFog.3 mph94%29.80 "Hg1 mi
6:00 am77 °FFog.3 mph100%29.77 "Hg2 mi
5:30 am77 °FFog.No wind100%29.74 "Hg3 mi
5:00 am77 °FFog.3 mph100%29.77 "Hg3 mi
4:30 am77 °FPartly cloudy.5 mph100%29.77 "Hg3 mi
4:00 am79 °FLight rain. Partly cloudy.No wind89%29.77 "Hg2 mi
3:30 am81 °FFog.3 mph84%29.74 "Hg2 mi
3:00 am81 °FFog.3 mph84%29.77 "Hg2 mi
2:30 am81 °FFog.3 mph84%29.77 "Hg2 mi
2:00 am81 °FFog.3 mph84%29.77 "Hg2 mi
1:30 am81 °FFog.3 mph84%29.80 "Hg2 mi
1:00 am81 °FFog.3 mph84%29.80 "Hg2 mi
12:30 am82 °FFog.3 mph79%29.80 "Hg3 mi
12:00 am82 °FFog.3 mph79%29.80 "Hg3 mi
11:30 pm
Wed, Nov 14
82 °FFog.3 mph79%29.80 "Hg3 mi
11:00 pm84 °FHaze.3 mph70%29.83 "Hg3 mi
10:30 pm84 °FHaze.7 mph70%29.83 "Hg3 mi
10:00 pm84 °FHaze.5 mph70%29.83 "Hg3 mi
9:30 pm84 °FHaze.6 mph70%29.83 "Hg3 mi
9:00 pm84 °FPassing clouds.7 mph66%29.83 "Hg3 mi
8:30 pm84 °FPassing clouds.7 mph70%29.83 "Hg3 mi
8:00 pm84 °FPassing clouds.7 mph70%29.83 "Hg3 mi
Weather by CustomWeather, © 2018

See weather overview